{"data":{"norad_id":67128,"epoch":"2026-09-20T08:57:44.719200Z","epoch_age_seconds":89173,"freshness":"FRESH","line1":"1 67128U 25299AC  26263.37343425  .00009245  00000+0  34495-3 0  9998","line2":"2 67128  43.0019 149.2529 0001326 266.5820  93.4880 15.27589651 42890","mean_motion":15.27589651,"eccentricity":0.0001326,"inclination_deg":43.0019,"raan_deg":149.2529,"arg_perigee_deg":266.582,"mean_anomaly_deg":93.488,"bstar":0.00034495,"rev_number":4289,"period_min":94.266153155551,"perigee_km":482.11040818146,"apogee_km":483.92998707027,"semimajor_km":6861.1571976259,"source":"CELESTRAK","updated_at":"2026-09-21T09:00:36.109204Z"}}